Location: Góry Miechowskie
(50.3599°N, 20.1803°E)
Time: 20:00:25
(UTC+00:00)

Meteor 1-27 - Visible Passes

Search period start: 08 September 2024 00:00
Search period end: 18 September 2024 00:00
Orbit: 836 x 892 km, 81.3° (Epoch: 08 September)

Date Brightness Start Highest point End Pass type
(mag) Time Alt. Az. Time Alt. Az. Time Alt. Az.
08 Sep 6.8 01:27:59 10° ESE 01:31:29 17° E 01:35:00 10° NE visible
08 Sep 4.2 03:08:25 10° SSW 03:13:58 81° WNW 03:19:35 10° N visible
09 Sep 6.8 01:20:02 10° ESE 01:23:31 17° E 01:27:02 10° NE visible
09 Sep 4.2 03:00:27 10° SSW 03:06:00 81° WNW 03:11:37 10° N visible
10 Sep 6.7 01:12:05 10° ESE 01:15:34 17° E 01:19:03 10° NE visible
10 Sep 4.2 02:52:29 10° SSW 02:58:02 81° WNW 03:03:40 10° N visible
11 Sep 6.7 01:04:07 10° ESE 01:07:36 17° E 01:11:05 10° NE visible
11 Sep 4.1 02:44:30 10° SSW 02:50:04 81° WNW 02:55:42 10° N visible
12 Sep 6.7 00:56:10 10° ESE 00:59:38 17° E 01:03:07 10° NE visible
12 Sep 4.1 02:36:32 10° SSW 02:42:05 82° WNW 02:47:44 10° N visible
13 Sep 6.6 00:48:13 10° ESE 00:51:40 17° E 00:55:09 10° NE visible
13 Sep 4.1 02:29:05 13° SSW 02:34:08 82° WNW 02:39:47 10° N visible
14 Sep 6.6 00:40:15 10° ESE 00:43:42 17° E 00:47:11 10° NE visible
14 Sep 4.1 02:21:52 18° SSW 02:26:09 82° W 02:31:49 10° N visible
15 Sep 6.6 00:32:18 10° ESE 00:35:45 17° E 00:39:13 10° NE visible
15 Sep 4.1 02:14:37 23° SSW 02:18:11 82° WNW 02:23:51 10° N visible
16 Sep 6.5 00:24:58 12° ESE 00:27:47 17° E 00:31:15 10° NE visible
16 Sep 4.1 02:07:17 29° SSW 02:10:13 83° WNW 02:15:54 10° N visible
17 Sep 6.5 00:17:36 14° ESE 00:19:49 17° E 00:23:17 10° NE visible
17 Sep 4.1 01:59:56 37° SSW 02:02:16 83° WNW 02:07:56 10° N visible
17 Sep 5.8 03:43:01 10° W 03:46:27 16° NW 03:49:55 10° NNW visible
